Regional Weather Roundup
Issued by NWS

Home | Current Version | Previous Version | Graphics & Text | Print | Product List | Glossary On
Versions: 1 2 3 4 5 6 7 8 9 10 11 12 13 14 15 16 17 18 19 20 21 22 23 24 25 26 27 28 29 30 31 32 33 34 35 36 37 38 39 40 41 42 43 44 45 46 47 48 49 50
656
ASUS44 KMEG 230510
RWRTN
TENNESSEE HOURLY STATE WEATHER ROUNDUP
NATIONAL WEATHER SERVICE MEMPHIS TN
1200 AM CDT MON OCT 23 2017

TNZ002-004-019-021-049-052-054-088>092-230600-
WEST TENNESSEE

CITY           SKY/WX    TMP DP  RH WIND       PRES   REMARKS
MEMPHIS INTL   MOCLDY    58  56  93 NW5       30.00S
NWS MEMPHIS      N/A     57 N/A N/A MISG        N/A
JACKSON        CLOUDY    58  57  97 W8        29.96S
DYERSBURG      LGT RAIN  56  54  93 NW7       29.97R
SOMERVILLE     CLOUDY    59  57  94 VRB3G13   29.97S FOG
COVINGTON      CLOUDY    57  55  94 NW7       29.98S
UNION CITY     CLOUDY    55  55 100 CALM      29.93S FOG
BOLIVAR        CLOUDY    59  57  94 W7        29.97R
HUNTINGDON     CLOUDY    59  57  94 W9        29.91F
LEXINGTON      CLOUDY    63  63 100 W7        29.93S FOG
SELMER         CLOUDY    63  61  94 W5        29.94S
SAVANNAH       CLOUDY    63  63 100 CALM      29.93F
$$

TNZ008-025-027-028-033-062-065-066-230600-
NORTH MIDDLE TENNESSEE

CITY           SKY/WX    TMP DP  RH WIND       PRES   REMARKS
NASHVILLE      CLOUDY    74  61  63 S12G22    29.94S
PORTLAND       CLOUDY    70  61  73 S12G18    29.94S
CLARKSVILLE    HVY RAIN  67  65  93 S10       29.92R FOG
SMYRNA         CLOUDY    73  62  68 SE15G23   29.95S
COOKEVILLE     PTCLDY    70  59  68 SE13G28   30.00S
GALLATIN       CLOUDY    72  61  68 SE9       29.97S
CROSSVILLE     CLOUDY    66  57  72 SE10G25   30.06F
$$

TNZ061-075-076-078-094-096-097-230600-
SOUTH MIDDLE TENNESSEE

CITY           SKY/WX    TMP DP  RH WIND       PRES   REMARKS
FAYETTEVILLE   CLOUDY    68  66  94 SE14G23   29.95F
TULLAHOMA      MOCLDY    66  61  82 SE13      29.98F
WINCHESTER     CLOUDY    66  64  94 SE15        N/A
COLUMBIA       MOCLDY    70  66  88 S6        29.89F FOG
SHELBYVILLE    CLOUDY    70  64  83 SE14G21   29.95F
$$

TNZ017-018-042-046-047-230600-
NORTHEAST TENNESSEE

CITY           SKY/WX    TMP DP  RH WIND       PRES   REMARKS
TRI CITIES     CLOUDY    68  57  68 E7        30.15F
ELIZABETHTON   CLOUDY    68  57  68 E8        30.16F
$$

TNZ012-013-036-069-073-074-230600-
CENTRAL EAST TENNESSEE

CITY           SKY/WX    TMP DP  RH WIND       PRES   REMARKS
KNOXVILLE      CLOUDY    72  59  63 SE14G23   30.05F
OAK RIDGE      CLOUDY    64  60  87 CALM      30.08F
DOWNTOWN KNOXV CLEAR     61  59  94 CALM      30.07F
GATLINBURG     CLEAR     61  55  82 SW3       30.07F
MORRISTOWN     CLEAR     68  57  68 SE9       30.10F
JACKSBORO      PTCLDY    61  59  94 CALM      30.10F
$$

TNZ083-085-099-230600-
SOUTHEAST TENNESSEE

CITY           SKY/WX    TMP DP  RH WIND       PRES   REMARKS
CHATTANOOGA    CLOUDY    71  62  73 SE14G21   30.05F
DAYTON         MOCLDY    68  63  83 SW3       30.05F
$$

SKY/WX REPORTED AS FAIR MEANS FEW OR NO CLOUDS BELOW
12 THOUSAND FEET.





USA.gov is the U.S. government's official web portal to all federal, state and local government web resources and services.